GCBPI EGTK-EGTK

Flight info

Callsign GCBPI
Flight time N/A
Altitude 2000
Route VFR
Aircraft PA28/L-V/N

Departure

Time 2026-04-25 20:02
Airport London Oxford Airport (EGTK)

Arrival

Time N/A
Airport London Oxford Airport (EGTK)
Time Latitude Longitude Altitude Speed Heading
2026-04-25 19:54 51.83200 -1.31665 247 ft 0 kts 245°
2026-04-25 19:58 51.83176 -1.31647 247 ft 9 kts 83°
2026-04-25 19:58 51.83160 -1.31569 246 ft 12 kts 153°
2026-04-25 19:58 51.83066 -1.31527 247 ft 16 kts 197°
2026-04-25 19:59 51.83014 -1.31717 246 ft 22 kts 260°
2026-04-25 19:59 51.82990 -1.31969 249 ft 20 kts 264°
2026-04-25 19:59 51.82987 -1.32026 250 ft 0 kts 265°
2026-04-25 20:00 51.82986 -1.32033 250 ft 5 kts 264°
2026-04-25 20:01 51.83140 -1.32164 252 ft 42 kts 10°
2026-04-25 20:01 51.83574 -1.32037 306 ft 73 kts
2026-04-25 20:01 51.84073 -1.32104 461 ft 75 kts 348°
2026-04-25 20:02 51.84600 -1.32234 599 ft 76 kts 357°
2026-04-25 20:02 51.85141 -1.32242 722 ft 80 kts
2026-04-25 20:02 51.85638 -1.31872 849 ft 79 kts 43°
2026-04-25 20:02 51.85854 -1.31095 984 ft 80 kts 81°
2026-04-25 20:03 51.85825 -1.30194 1094 ft 83 kts 91°
2026-04-25 20:03 51.85760 -1.29276 1232 ft 80 kts 95°
2026-04-25 20:03 51.85665 -1.28370 1328 ft 83 kts 95°
2026-04-25 20:03 51.85561 -1.27454 1459 ft 82 kts 95°
2026-04-25 20:04 51.85452 -1.26491 1448 ft 93 kts 96°
2026-04-25 20:04 51.85341 -1.25478 1550 ft 88 kts 95°
2026-04-25 20:04 51.85233 -1.24482 1665 ft 95 kts 96°
2026-04-25 20:04 51.85227 -1.23424 1873 ft 95 kts 79°
2026-04-25 20:05 51.85327 -1.22328 2070 ft 96 kts 78°
2026-04-25 20:05 51.85450 -1.21150 2094 ft 111 kts 78°
2026-04-25 20:05 51.85589 -1.19894 2174 ft 117 kts 78°
2026-04-25 20:05 51.85737 -1.18581 2308 ft 116 kts 78°
2026-04-25 20:06 51.85877 -1.17279 2368 ft 121 kts 78°
2026-04-25 20:06 51.86019 -1.15940 2471 ft 120 kts 78°
2026-04-25 20:06 51.86165 -1.14525 2365 ft 132 kts 78°
2026-04-25 20:06 51.86323 -1.13003 2269 ft 138 kts 79°
2026-04-25 20:07 51.86480 -1.11517 2325 ft 132 kts 78°
2026-04-25 20:07 51.86634 -1.10038 2279 ft 135 kts 78°
2026-04-25 20:07 51.86797 -1.08532 2279 ft 134 kts 78°
2026-04-25 20:07 51.86967 -1.07020 2126 ft 142 kts 79°
2026-04-25 20:08 51.87144 -1.05495 2066 ft 144 kts 78°
2026-04-25 20:08 51.87317 -1.03968 2148 ft 134 kts 77°
2026-04-25 20:08 51.87489 -1.02469 2086 ft 136 kts 78°
2026-04-25 20:08 51.87655 -1.01044 2213 ft 129 kts 78°
2026-04-25 20:09 51.87770 -0.99567 2171 ft 134 kts 87°
2026-04-25 20:09 51.87779 -0.97946 1854 ft 150 kts 88°
2026-04-25 20:09 51.87785 -0.96271 1607 ft 151 kts 88°
2026-04-25 20:09 51.87806 -0.94561 1355 ft 151 kts 88°
2026-04-25 20:10 51.87818 -0.93423 1246 ft 147 kts 88°
2026-04-25 20:10 51.87837 -0.91392 1332 ft 129 kts 88°
2026-04-25 20:10 51.87844 -0.89957 1359 ft 125 kts 88°
2026-04-25 20:10 51.87849 -0.88639 1434 ft 120 kts 88°
2026-04-25 20:11 51.87851 -0.87261 1389 ft 124 kts 88°
2026-04-25 20:11 51.87857 -0.85879 1441 ft 121 kts 87°
2026-04-25 20:11 51.87793 -0.84513 1423 ft 124 kts 94°
2026-04-25 20:11 51.87715 -0.83140 1491 ft 120 kts 93°
2026-04-25 20:12 51.87632 -0.81766 1468 ft 124 kts 93°
2026-04-25 20:12 51.87549 -0.80387 1465 ft 125 kts 93°
2026-04-25 20:12 51.87466 -0.78968 1433 ft 128 kts 92°
2026-04-25 20:12 51.87411 -0.78008 1403 ft 127 kts 94°
2026-04-25 20:13 51.87308 -0.76140 1346 ft 124 kts 93°
2026-04-25 20:13 51.87230 -0.74734 1247 ft 126 kts 93°
2026-04-25 20:13 51.87150 -0.73346 1230 ft 123 kts 93°
2026-04-25 20:13 51.87067 -0.71963 1150 ft 125 kts 93°
2026-04-25 20:14 51.86984 -0.70578 1112 ft 123 kts 93°
2026-04-25 20:14 51.86905 -0.69194 1043 ft 124 kts 93°
2026-04-25 20:14 51.86830 -0.67800 994 ft 123 kts 93°
2026-04-25 20:14 51.86753 -0.66415 928 ft 125 kts 93°
2026-04-25 20:15 51.86680 -0.65116 1112 ft 107 kts 92°
2026-04-25 20:15 51.86604 -0.63920 1175 ft 106 kts 92°
2026-04-25 20:15 51.86530 -0.62788 1317 ft 99 kts 92°
2026-04-25 20:15 51.86460 -0.61701 1432 ft 95 kts 91°
2026-04-25 20:16 51.86390 -0.60597 1514 ft 95 kts 91°
2026-04-25 20:16 51.86321 -0.59510 1570 ft 98 kts 91°
2026-04-25 20:16 51.86245 -0.58434 1670 ft 96 kts 92°
2026-04-25 20:16 51.86174 -0.57342 1749 ft 96 kts 92°
2026-04-25 20:17 51.86103 -0.56271 1816 ft 98 kts 92°
2026-04-25 20:17 51.86029 -0.55183 1896 ft 97 kts 91°
2026-04-25 20:17 51.85949 -0.54077 1979 ft 97 kts 92°
2026-04-25 20:17 51.85874 -0.53004 2058 ft 97 kts 92°
2026-04-25 20:18 51.85798 -0.51928 2150 ft 96 kts 90°
2026-04-25 20:18 51.85717 -0.50828 2190 ft 100 kts 91°
2026-04-25 20:18 51.85642 -0.49726 2256 ft 100 kts 91°
2026-04-25 20:18 51.85633 -0.48627 2354 ft 97 kts 84°
2026-04-25 20:19 51.85683 -0.47455 2257 ft 111 kts 81°
2026-04-25 20:19 51.85822 -0.46168 2170 ft 115 kts 75°
2026-04-25 20:19 51.85978 -0.45020 2328 ft 104 kts 75°
2026-04-25 20:19 51.86145 -0.43785 2219 ft 115 kts 74°
2026-04-25 20:20 51.86336 -0.42646 1901 ft 96 kts 66°
2026-04-25 20:20 51.86567 -0.41698 1423 ft 88 kts 67°
2026-04-25 20:20 51.86765 -0.40831 1098 ft 79 kts 79°
2026-04-25 20:20 51.86917 -0.40040 924 ft 73 kts 70°
2026-04-25 20:21 51.87042 -0.39237 735 ft 73 kts 69°
2026-04-25 20:21 51.87184 -0.38465 587 ft 70 kts 71°
2026-04-25 20:21 51.87297 -0.37798 520 ft 48 kts 71°
2026-04-25 20:21 51.87414 -0.37158 573 ft 62 kts 62°
2026-04-25 20:22 51.87598 -0.36451 698 ft 69 kts 62°
2026-04-25 20:22 51.87663 -0.35874 761 ft 85 kts 87°
2026-04-25 20:22 51.87402 -0.34784 1144 ft 83 kts 130°
2026-04-25 20:22 51.86902 -0.34118 1308 ft 96 kts 137°
2026-04-25 20:23 51.86325 -0.33396 1434 ft 106 kts 138°
2026-04-25 20:23 51.85730 -0.32658 1640 ft 106 kts 138°
2026-04-25 20:23 51.85113 -0.31894 1678 ft 121 kts 138°
2026-04-25 20:23 51.84431 -0.31041 1767 ft 126 kts 139°
2026-04-25 20:24 51.83743 -0.30178 1932 ft 122 kts 138°
2026-04-25 20:24 51.83059 -0.29320 1985 ft 129 kts 138°
2026-04-25 20:24 51.82317 -0.28384 1926 ft 138 kts 139°
2026-04-25 20:24 51.81579 -0.27437 1977 ft 137 kts 138°
2026-04-25 20:25 51.80808 -0.26459 1905 ft 143 kts 138°
2026-04-25 20:25 51.79996 -0.25533 1931 ft 142 kts 150°
2026-04-25 20:25 51.79091 -0.24831 1914 ft 144 kts 150°
2026-04-25 20:25 51.78195 -0.24127 1942 ft 142 kts 151°
2026-04-25 20:26 51.77319 -0.23450 1970 ft 141 kts 152°
2026-04-25 20:26 51.76416 -0.22755 1935 ft 144 kts 153°
2026-04-25 20:26 51.75459 -0.22270 1972 ft 142 kts 160°
2026-04-25 20:26 51.74513 -0.21793 1953 ft 144 kts 161°
2026-04-25 20:27 51.73546 -0.21305 1959 ft 144 kts 160°
2026-04-25 20:27 51.72596 -0.20836 1986 ft 143 kts 160°
2026-04-25 20:27 51.71639 -0.20366 1982 ft 144 kts 160°
2026-04-25 20:27 51.70688 -0.19908 2019 ft 141 kts 160°
2026-04-25 20:28 51.69738 -0.19446 2003 ft 144 kts 160°
2026-04-25 20:28 51.68791 -0.18983 2021 ft 142 kts 160°
2026-04-25 20:28 51.67850 -0.18524 2034 ft 142 kts 160°
2026-04-25 20:28 51.66885 -0.18048 2015 ft 143 kts 160°
2026-04-25 20:29 51.65942 -0.17577 2051 ft 141 kts 159°
2026-04-25 20:29 51.65181 -0.16631 1842 ft 149 kts 118°
2026-04-25 20:29 51.65043 -0.15046 1859 ft 136 kts 77°
2026-04-25 20:29 51.65523 -0.13782 1866 ft 135 kts 41°
2026-04-25 20:30 51.66172 -0.12705 1741 ft 141 kts 64°
2026-04-25 20:30 51.66143 -0.11112 1577 ft 148 kts 112°
2026-04-25 20:30 51.65395 -0.10060 1606 ft 146 kts 157°
2026-04-25 20:30 51.64383 -0.09995 1570 ft 147 kts 184°
2026-04-25 20:31 51.63406 -0.10129 1699 ft 139 kts 184°
2026-04-25 20:31 51.62416 -0.10377 1602 ft 148 kts 196°
2026-04-25 20:31 51.61658 -0.11533 1384 ft 159 kts 246°
2026-04-25 20:31 51.61642 -0.13192 1428 ft 146 kts 292°
2026-04-25 20:32 51.62303 -0.14371 1348 ft 145 kts 334°
2026-04-25 20:32 51.63295 -0.14466 1247 ft 143 kts 20°
2026-04-25 20:32 51.63988 -0.13421 1208 ft 141 kts 64°
2026-04-25 20:32 51.64169 -0.11905 1276 ft 133 kts 88°
2026-04-25 20:33 51.64008 -0.10423 1255 ft 136 kts 97°
2026-04-25 20:33 51.63850 -0.08946 1328 ft 132 kts 99°
2026-04-25 20:33 51.63683 -0.07477 1329 ft 134 kts 99°
2026-04-25 20:33 51.63571 -0.06499 1347 ft 133 kts 98°
2026-04-25 20:34 51.63327 -0.04569 1367 ft 134 kts 103°
2026-04-25 20:34 51.63091 -0.03125 1392 ft 133 kts 102°
2026-04-25 20:34 51.62864 -0.01674 1410 ft 133 kts 99°
2026-04-25 20:34 51.62693 -0.00209 1415 ft 133 kts 99°
2026-04-25 20:35 51.62523 0.01244 1443 ft 133 kts 98°
2026-04-25 20:35 51.62352 0.02712 1455 ft 133 kts 98°
2026-04-25 20:35 51.62183 0.04167 1478 ft 133 kts 98°
2026-04-25 20:35 51.62015 0.05632 1498 ft 133 kts 98°
2026-04-25 20:36 51.61850 0.07094 1516 ft 132 kts 98°
2026-04-25 20:36 51.61682 0.08571 1526 ft 133 kts 98°
2026-04-25 20:36 51.61520 0.10032 1546 ft 133 kts 98°
2026-04-25 20:36 51.61356 0.11481 1563 ft 133 kts 99°
2026-04-25 20:37 51.61101 0.12923 1560 ft 134 kts 103°
2026-04-25 20:37 51.60842 0.14362 1590 ft 133 kts 104°
2026-04-25 20:37 51.60584 0.15784 1596 ft 134 kts 104°
2026-04-25 20:37 51.60323 0.17226 1617 ft 133 kts 103°
2026-04-25 20:38 51.59935 0.18598 1570 ft 138 kts 118°
2026-04-25 20:38 51.59368 0.19846 1583 ft 138 kts 132°
2026-04-25 20:38 51.58683 0.20910 1609 ft 137 kts 137°
2026-04-25 20:38 51.57885 0.21785 1598 ft 139 kts 142°
2026-04-25 20:39 51.57021 0.22489 1608 ft 140 kts 152°
2026-04-25 20:39 51.56139 0.23150 1642 ft 139 kts 154°
2026-04-25 20:39 51.55211 0.23652 1635 ft 141 kts 158°
2026-04-25 20:39 51.54605 0.23977 1662 ft 139 kts 159°
2026-04-25 20:40 51.53372 0.24620 1663 ft 140 kts 159°
2026-04-25 20:40 51.52443 0.25113 1684 ft 140 kts 158°
2026-04-25 20:40 51.51679 0.26039 1517 ft 146 kts 118°
2026-04-25 20:40 51.51407 0.27564 1607 ft 132 kts 101°
2026-04-25 20:41 51.51199 0.28940 1672 ft 132 kts 99°
2026-04-25 20:41 51.50993 0.30441 1585 ft 137 kts 99°
2026-04-25 20:41 51.50804 0.31879 1694 ft 131 kts 99°
2026-04-25 20:41 51.50608 0.33356 1641 ft 136 kts 99°
2026-04-25 20:42 51.50420 0.34768 1694 ft 133 kts 99°
2026-04-25 20:42 51.50227 0.36207 1700 ft 134 kts 99°
2026-04-25 20:42 51.50031 0.37683 1722 ft 133 kts 99°
2026-04-25 20:42 51.49838 0.39127 1739 ft 133 kts 99°
2026-04-25 20:43 51.49642 0.40575 1762 ft 132 kts 99°
2026-04-25 20:43 51.49447 0.42017 1773 ft 133 kts 99°
2026-04-25 20:43 51.49249 0.43472 1784 ft 133 kts 99°
2026-04-25 20:43 51.49051 0.44938 1792 ft 133 kts 97°
2026-04-25 20:44 51.49273 0.46359 1601 ft 143 kts 54°
2026-04-25 20:44 51.49857 0.47549 1790 ft 125 kts 52°
2026-04-25 20:44 51.50256 0.48804 1704 ft 136 kts 71°
2026-04-25 20:44 51.50547 0.50261 1723 ft 131 kts 70°
2026-04-25 20:45 51.50804 0.51614 1793 ft 130 kts 71°
2026-04-25 20:45 51.51074 0.53048 1726 ft 135 kts 71°
2026-04-25 20:45 51.51370 0.54448 1812 ft 129 kts 64°
2026-04-25 20:45 51.51715 0.55804 1765 ft 133 kts 68°
2026-04-25 20:46 51.52051 0.57161 1824 ft 129 kts 66°
2026-04-25 20:46 51.52381 0.58530 1802 ft 132 kts 66°
2026-04-25 20:46 51.52712 0.59890 1833 ft 130 kts 66°
2026-04-25 20:46 51.53110 0.61215 1798 ft 133 kts 49°
2026-04-25 20:47 51.53765 0.62279 1771 ft 132 kts 43°
2026-04-25 20:47 51.54420 0.63381 1533 ft 146 kts 50°
2026-04-25 20:47 51.54663 0.64782 1127 ft 144 kts 104°
2026-04-25 20:47 51.55037 0.65885 824 ft 105 kts 30°
2026-04-25 20:48 51.55549 0.66425 564 ft 78 kts 53°
2026-04-25 20:48 51.55897 0.67009 438 ft 67 kts 51°
2026-04-25 20:48 51.56112 0.67396 337 ft 66 kts 57°
2026-04-25 20:48 51.56404 0.67976 192 ft 65 kts 55°
2026-04-25 20:49 51.56681 0.68532 61 ft 61 kts 60°
2026-04-25 20:49 51.56874 0.68963 46 ft 17 kts 53°
2026-04-25 20:49 51.56849 0.69098 46 ft 17 kts 137°
2026-04-25 20:49 51.56879 0.69256 46 ft 19 kts 52°
2026-04-25 20:50 51.56859 0.69385 46 ft 12 kts 216°
2026-04-25 20:50 51.56842 0.69398 46 ft 0 kts 355°
2026-04-25 21:08 51.56854 0.69395 46 ft 7 kts 353°
2026-04-25 21:08 51.56892 0.69296 46 ft 20 kts 251°
2026-04-25 21:08 51.56853 0.69093 46 ft 15 kts 314°
2026-04-25 21:09 51.56974 0.69181 46 ft 39 kts 54°
2026-04-25 21:09 51.57253 0.69751 73 ft 78 kts 52°
2026-04-25 21:09 51.57554 0.70489 237 ft 78 kts 56°
2026-04-25 21:10 51.57892 0.71214 476 ft 80 kts 65°
2026-04-25 21:10 51.57899 0.72083 733 ft 82 kts 118°
2026-04-25 21:10 51.57491 0.72671 1035 ft 81 kts 149°
2026-04-25 21:10 51.56976 0.73108 1277 ft 86 kts 152°
2026-04-25 21:11 51.56415 0.73408 1509 ft 94 kts 180°
2026-04-25 21:11 51.55757 0.73230 1718 ft 101 kts 191°
2026-04-25 21:11 51.55017 0.72969 1841 ft 113 kts 193°
2026-04-25 21:11 51.54270 0.72576 2028 ft 116 kts 210°
2026-04-25 21:12 51.53510 0.71883 2039 ft 130 kts 213°
2026-04-25 21:12 51.52748 0.71203 2265 ft 123 kts 211°
2026-04-25 21:12 51.51976 0.70511 2347 ft 128 kts 212°
2026-04-25 21:12 51.51454 0.70045 2381 ft 132 kts 212°
2026-04-25 21:13 51.50346 0.69028 2393 ft 139 kts 214°
2026-04-25 21:13 51.49524 0.68260 2496 ft 136 kts 213°
2026-04-25 21:13 51.48695 0.67501 2538 ft 138 kts 213°
2026-04-25 21:13 51.47813 0.66589 2295 ft 152 kts 221°
2026-04-25 21:14 51.46985 0.65586 2250 ft 151 kts 220°
2026-04-25 21:14 51.46130 0.64587 2143 ft 153 kts 220°
2026-04-25 21:14 51.45274 0.63558 2090 ft 151 kts 220°
2026-04-25 21:14 51.44427 0.62560 1992 ft 152 kts 220°
2026-04-25 21:15 51.43586 0.61536 1947 ft 150 kts 220°
2026-04-25 21:15 51.42753 0.60529 1864 ft 151 kts 220°
2026-04-25 21:15 51.41909 0.59495 1805 ft 150 kts 220°
2026-04-25 21:15 51.41077 0.58470 1742 ft 150 kts 220°
2026-04-25 21:16 51.40256 0.57462 1684 ft 149 kts 220°
2026-04-25 21:16 51.39430 0.56444 1631 ft 148 kts 220°
2026-04-25 21:16 51.38623 0.55423 1561 ft 149 kts 227°
2026-04-25 21:16 51.38014 0.54060 1457 ft 151 kts 243°
2026-04-25 21:17 51.37466 0.52668 1445 ft 147 kts 240°
2026-04-25 21:17 51.36879 0.51318 1394 ft 147 kts 239°
2026-04-25 21:17 51.36298 0.50001 1426 ft 142 kts 237°
2026-04-25 21:17 51.35710 0.48738 1447 ft 140 kts 236°
2026-04-25 21:18 51.35121 0.47530 1520 ft 138 kts 234°
2026-04-25 21:18 51.34516 0.46302 1499 ft 140 kts 236°
2026-04-25 21:18 51.33937 0.45082 1548 ft 138 kts 235°
2026-04-25 21:18 51.33340 0.43854 1555 ft 139 kts 235°
2026-04-25 21:19 51.32765 0.42614 1588 ft 139 kts 239°
2026-04-25 21:19 51.32332 0.41219 1590 ft 141 kts 254°
2026-04-25 21:19 51.32037 0.39736 1624 ft 140 kts 259°
2026-04-25 21:19 51.31806 0.38231 1650 ft 140 kts 260°
2026-04-25 21:20 51.31573 0.36713 1680 ft 140 kts 260°
2026-04-25 21:20 51.31427 0.35702 1709 ft 139 kts 262°
2026-04-25 21:20 51.31418 0.33631 1687 ft 142 kts 283°
2026-04-25 21:20 51.31614 0.32116 1757 ft 138 kts 287°
2026-04-25 21:21 51.31856 0.30640 1751 ft 140 kts 289°
2026-04-25 21:21 51.32111 0.29143 1774 ft 140 kts 290°
2026-04-25 21:21 51.32353 0.27643 1799 ft 140 kts 289°
2026-04-25 21:21 51.32595 0.26127 1812 ft 140 kts 289°
2026-04-25 21:22 51.32842 0.24631 1828 ft 139 kts 291°
2026-04-25 21:22 51.33154 0.23172 1837 ft 140 kts 295°
2026-04-25 21:22 51.33475 0.21716 1862 ft 139 kts 294°
2026-04-25 21:22 51.33798 0.20241 1871 ft 140 kts 294°
2026-04-25 21:23 51.34121 0.18783 1889 ft 139 kts 294°
2026-04-25 21:23 51.34439 0.17325 1892 ft 140 kts 294°
2026-04-25 21:23 51.34764 0.15860 1918 ft 139 kts 294°
2026-04-25 21:23 51.35089 0.14379 1929 ft 140 kts 294°
2026-04-25 21:24 51.35413 0.12917 1939 ft 140 kts 294°
2026-04-25 21:24 51.35737 0.11455 1954 ft 140 kts 294°
2026-04-25 21:24 51.36056 0.09997 1973 ft 139 kts 294°
2026-04-25 21:24 51.36376 0.08527 1988 ft 139 kts 294°
2026-04-25 21:25 51.36691 0.07074 2006 ft 138 kts 294°
2026-04-25 21:25 51.37001 0.05617 2005 ft 139 kts 294°
2026-04-25 21:25 51.37317 0.04148 2023 ft 138 kts 294°
2026-04-25 21:25 51.37588 0.02663 2010 ft 141 kts 285°
2026-04-25 21:26 51.37653 0.01091 2018 ft 140 kts 276°
2026-04-25 21:26 51.37669 -0.00447 2045 ft 140 kts 274°
2026-04-25 21:26 51.37678 -0.01994 2025 ft 142 kts 275°
2026-04-25 21:26 51.37691 -0.03554 2054 ft 140 kts 275°
2026-04-25 21:27 51.37597 -0.05055 2026 ft 143 kts 264°
2026-04-25 21:27 51.37426 -0.06623 2069 ft 140 kts 264°
2026-04-25 21:27 51.37255 -0.08145 2069 ft 141 kts 264°
2026-04-25 21:27 51.37091 -0.09649 2081 ft 140 kts 264°
2026-04-25 21:28 51.36864 -0.11150 2064 ft 142 kts 252°
2026-04-25 21:28 51.36350 -0.12481 2032 ft 143 kts 231°
2026-04-25 21:28 51.35621 -0.13523 2067 ft 140 kts 220°
2026-04-25 21:28 51.34855 -0.14487 2053 ft 142 kts 221°
2026-04-25 21:29 51.34089 -0.15474 2070 ft 141 kts 223°
2026-04-25 21:29 51.33435 -0.16648 2054 ft 143 kts 235°
2026-04-25 21:29 51.32832 -0.17873 2096 ft 140 kts 234°
2026-04-25 21:29 51.32316 -0.19220 2064 ft 144 kts 251°
2026-04-25 21:30 51.31995 -0.20710 2108 ft 140 kts 257°
2026-04-25 21:30 51.31701 -0.22184 2100 ft 142 kts 256°
2026-04-25 21:30 51.31401 -0.23698 2108 ft 141 kts 256°
2026-04-25 21:30 51.31206 -0.24681 2118 ft 141 kts 256°
2026-04-25 21:31 51.30807 -0.26671 2116 ft 141 kts 258°
2026-04-25 21:31 51.30600 -0.28199 2115 ft 142 kts 264°
2026-04-25 21:31 51.30409 -0.29757 2120 ft 141 kts 263°
2026-04-25 21:31 51.30211 -0.31271 2122 ft 142 kts 263°
2026-04-25 21:32 51.30013 -0.32771 2122 ft 142 kts 263°
2026-04-25 21:32 51.29809 -0.34293 2125 ft 142 kts 263°
2026-04-25 21:32 51.29610 -0.35807 2136 ft 141 kts 263°
2026-04-25 21:32 51.29413 -0.37316 2140 ft 141 kts 263°
2026-04-25 21:33 51.29212 -0.38864 2138 ft 142 kts 263°
2026-04-25 21:33 51.29012 -0.40394 2135 ft 142 kts 263°
2026-04-25 21:33 51.28811 -0.41942 2151 ft 141 kts 263°
2026-04-25 21:33 51.28611 -0.43463 2143 ft 142 kts 263°
2026-04-25 21:34 51.28411 -0.45006 2148 ft 142 kts 263°
2026-04-25 21:34 51.28207 -0.46538 2139 ft 142 kts 263°
2026-04-25 21:34 51.27997 -0.48084 2140 ft 142 kts 263°
2026-04-25 21:34 51.27709 -0.49588 2124 ft 144 kts 250°
2026-04-25 21:35 51.27393 -0.51104 2042 ft 148 kts 276°
2026-04-25 21:35 51.27509 -0.52670 2086 ft 139 kts 282°
2026-04-25 21:35 51.27544 -0.54177 2102 ft 141 kts 276°
2026-04-25 21:35 51.27570 -0.55766 2062 ft 142 kts 279°
2026-04-25 21:36 51.27605 -0.57322 2107 ft 140 kts 278°
2026-04-25 21:36 51.27745 -0.58861 2065 ft 141 kts 290°
2026-04-25 21:36 51.28019 -0.60325 2097 ft 139 kts 293°
2026-04-25 21:36 51.28284 -0.61790 2084 ft 140 kts 292°
2026-04-25 21:37 51.28554 -0.63268 2085 ft 140 kts 292°
2026-04-25 21:37 51.28736 -0.64277 2082 ft 140 kts 292°
2026-04-25 21:37 51.29091 -0.66251 2095 ft 139 kts 291°
2026-04-25 21:37 51.29346 -0.67716 2097 ft 139 kts 291°
2026-04-25 21:38 51.29608 -0.69211 2105 ft 139 kts 291°
2026-04-25 21:38 51.29867 -0.70700 2101 ft 139 kts 291°
2026-04-25 21:38 51.30127 -0.72176 2107 ft 139 kts 292°
2026-04-25 21:38 51.30384 -0.73657 2104 ft 139 kts 291°
2026-04-25 21:39 51.30644 -0.75145 2099 ft 139 kts 291°
2026-04-25 21:39 51.30915 -0.76625 2101 ft 139 kts 295°
2026-04-25 21:39 51.31323 -0.78032 2088 ft 138 kts 307°
2026-04-25 21:39 51.31969 -0.79173 2047 ft 138 kts 324°
2026-04-25 21:40 51.32658 -0.80212 2089 ft 135 kts 321°
2026-04-25 21:40 51.33319 -0.81270 2070 ft 137 kts 321°
2026-04-25 21:40 51.33992 -0.82326 2085 ft 135 kts 322°
2026-04-25 21:40 51.34716 -0.83272 2029 ft 138 kts 342°
2026-04-25 21:41 51.35644 -0.83559 1981 ft 134 kts 358°
2026-04-25 21:41 51.36515 -0.83852 2067 ft 130 kts 351°
2026-04-25 21:41 51.37428 -0.84232 1986 ft 135 kts 353°
2026-04-25 21:41 51.38315 -0.84561 2057 ft 130 kts 352°
2026-04-25 21:42 51.39197 -0.84926 2022 ft 133 kts 352°
2026-04-25 21:42 51.40096 -0.85276 2036 ft 131 kts 352°
2026-04-25 21:42 51.41006 -0.85458 1960 ft 135 kts
2026-04-25 21:42 51.41942 -0.85469 1971 ft 131 kts
2026-04-25 21:43 51.42805 -0.85515 1951 ft 133 kts
2026-04-25 21:43 51.44584 -0.85616 1914 ft 132 kts
2026-04-25 21:43 51.45495 -0.85674 1890 ft 132 kts
2026-04-25 21:44 51.46420 -0.85725 1883 ft 132 kts
2026-04-25 21:44 51.47326 -0.85780 1876 ft 132 kts
2026-04-25 21:44 51.49155 -0.85887 1870 ft 131 kts
2026-04-25 21:45 51.50076 -0.85942 1852 ft 131 kts
2026-04-25 21:45 51.50685 -0.85974 1849 ft 131 kts
2026-04-25 21:45 51.51914 -0.86052 1801 ft 133 kts
2026-04-25 21:45 51.52827 -0.86112 1781 ft 133 kts
2026-04-25 21:46 51.53767 -0.86181 1738 ft 135 kts
2026-04-25 21:46 51.54710 -0.86247 1737 ft 134 kts
2026-04-25 21:46 51.55637 -0.86316 1744 ft 133 kts
2026-04-25 21:46 51.56556 -0.86367 1725 ft 133 kts
2026-04-25 21:47 51.57476 -0.86253 1707 ft 131 kts 11°
2026-04-25 21:47 51.58393 -0.86127 1688 ft 131 kts 10°
2026-04-25 21:47 51.59304 -0.86007 1668 ft 132 kts 11°
2026-04-25 21:47 51.60216 -0.85889 1651 ft 132 kts 11°
2026-04-25 21:48 51.61109 -0.85773 1633 ft 132 kts 11°
2026-04-25 21:48 51.62040 -0.85748 1598 ft 134 kts
2026-04-25 21:48 51.62933 -0.86156 1546 ft 138 kts 342°
2026-04-25 21:48 51.63716 -0.87000 1530 ft 139 kts 323°
2026-04-25 21:49 51.64317 -0.88234 1506 ft 142 kts 305°
2026-04-25 21:49 51.64653 -0.89700 1487 ft 143 kts 287°
2026-04-25 21:49 51.64698 -0.91297 1465 ft 144 kts 268°
2026-04-25 21:49 51.64438 -0.92839 1447 ft 143 kts 250°
2026-04-25 21:50 51.63895 -0.94186 1426 ft 143 kts 231°
2026-04-25 21:50 51.63124 -0.95201 1418 ft 143 kts 213°
2026-04-25 21:50 51.62210 -0.95777 1405 ft 141 kts 194°
2026-04-25 21:50 51.61239 -0.95949 1394 ft 140 kts 185°
2026-04-25 21:51 51.60280 -0.96040 1405 ft 140 kts 185°
2026-04-25 21:51 51.59330 -0.96136 1418 ft 139 kts 185°
2026-04-25 21:51 51.58364 -0.96234 1417 ft 139 kts 185°
2026-04-25 21:51 51.57383 -0.96331 1403 ft 140 kts 185°
2026-04-25 21:52 51.56410 -0.96420 1408 ft 139 kts 182°
2026-04-25 21:52 51.55468 -0.96386 1397 ft 140 kts 179°
2026-04-25 21:52 51.54501 -0.96339 1403 ft 139 kts 179°
2026-04-25 21:52 51.53534 -0.96288 1393 ft 139 kts 179°
2026-04-25 21:53 51.52571 -0.96244 1400 ft 139 kts 179°
2026-04-25 21:53 51.51608 -0.96194 1391 ft 139 kts 179°
2026-04-25 21:53 51.50637 -0.96144 1384 ft 140 kts 179°
2026-04-25 21:53 51.49659 -0.96044 1368 ft 141 kts 176°
2026-04-25 21:54 51.48685 -0.96117 1361 ft 140 kts 188°
2026-04-25 21:54 51.47714 -0.96260 1369 ft 139 kts 186°
2026-04-25 21:54 51.46837 -0.96363 1359 ft 140 kts 186°
2026-04-25 21:54 51.45993 -0.96465 1357 ft 140 kts 186°
2026-04-25 21:55 51.44729 -0.96618 1371 ft 139 kts 186°
2026-04-25 21:55 51.43765 -0.96723 1354 ft 140 kts 186°
2026-04-25 21:55 51.42781 -0.96847 1103 ft 152 kts 188°
2026-04-25 21:55 51.41802 -0.97042 1225 ft 140 kts 188°
2026-04-25 21:56 51.40821 -0.97136 1162 ft 140 kts 180°
2026-04-25 21:56 51.40188 -0.97011 1209 ft 135 kts 169°
2026-04-25 21:56 51.39082 -0.96171 1143 ft 138 kts 147°
2026-04-25 21:56 51.38333 -0.95263 1202 ft 133 kts 143°
2026-04-25 21:57 51.37736 -0.94202 1117 ft 137 kts 127°
2026-04-25 21:57 51.37328 -0.92939 1141 ft 133 kts 117°
2026-04-25 21:57 51.36966 -0.91569 1141 ft 134 kts 116°
2026-04-25 21:57 51.36601 -0.90200 1120 ft 134 kts 117°
2026-04-25 21:58 51.36231 -0.88837 1134 ft 133 kts 116°
2026-04-25 21:58 51.35868 -0.87469 1114 ft 134 kts 116°
2026-04-25 21:58 51.35505 -0.86110 1122 ft 133 kts 116°
2026-04-25 21:58 51.35146 -0.84734 1110 ft 134 kts 116°
2026-04-25 21:59 51.34791 -0.83377 1108 ft 133 kts 116°
2026-04-25 21:59 51.34434 -0.82009 1099 ft 134 kts 116°
2026-04-25 21:59 51.34069 -0.80626 1088 ft 134 kts 116°
2026-04-25 22:00 51.33334 -0.77892 1081 ft 134 kts 116°
2026-04-25 22:00 51.32970 -0.76547 1072 ft 134 kts 116°
2026-04-25 22:00 51.32605 -0.75194 1068 ft 134 kts 116°
2026-04-25 22:00 51.32233 -0.73829 1065 ft 133 kts 115°
2026-04-25 22:01 51.31859 -0.72475 1050 ft 134 kts 115°
2026-04-25 22:01 51.31475 -0.71113 1038 ft 134 kts 116°
2026-04-25 22:01 51.31093 -0.69750 1021 ft 135 kts 115°
2026-04-25 22:01 51.30839 -0.68850 1024 ft 134 kts 116°
2026-04-25 22:02 51.30333 -0.67012 1020 ft 134 kts 115°
2026-04-25 22:02 51.29958 -0.65644 1019 ft 134 kts 115°
2026-04-25 22:02 51.29591 -0.64291 1010 ft 134 kts 115°
2026-04-25 22:02 51.29220 -0.62915 1009 ft 134 kts 116°
2026-04-25 22:03 51.28858 -0.61543 1005 ft 134 kts 115°
2026-04-25 22:03 51.28502 -0.60177 1000 ft 134 kts 115°
2026-04-25 22:03 51.28141 -0.58800 995 ft 134 kts 115°
2026-04-25 22:03 51.27776 -0.57430 992 ft 133 kts 115°
2026-04-25 22:04 51.27410 -0.56067 987 ft 133 kts 115°
2026-04-25 22:04 51.27052 -0.54719 979 ft 133 kts 115°
2026-04-25 22:04 51.26692 -0.53356 972 ft 133 kts 115°
2026-04-25 22:04 51.26333 -0.51992 972 ft 133 kts 115°
2026-04-25 22:05 51.25997 -0.50595 950 ft 134 kts 109°
2026-04-25 22:05 51.25809 -0.49173 944 ft 133 kts 102°
2026-04-25 22:05 51.25647 -0.47741 947 ft 133 kts 102°
2026-04-25 22:05 51.25482 -0.46267 924 ft 134 kts 103°
2026-04-25 22:06 51.25318 -0.44818 925 ft 133 kts 103°
2026-04-25 22:06 51.25165 -0.43363 925 ft 133 kts 102°
2026-04-25 22:06 51.25015 -0.41908 917 ft 132 kts 103°
2026-04-25 22:06 51.24865 -0.40460 907 ft 133 kts 102°
2026-04-25 22:07 51.24717 -0.38999 896 ft 133 kts 102°
2026-04-25 22:07 51.24621 -0.38060 899 ft 133 kts 102°
2026-04-25 22:07 51.24455 -0.36091 873 ft 134 kts 96°
2026-04-25 22:07 51.24449 -0.34617 877 ft 133 kts 94°
2026-04-25 22:08 51.24459 -0.33164 976 ft 127 kts 92°
2026-04-25 22:08 51.24498 -0.31750 972 ft 131 kts 91°
2026-04-25 22:08 51.24529 -0.30292 999 ft 130 kts 92°
2026-04-25 22:08 51.24564 -0.28853 1043 ft 130 kts 92°
2026-04-25 22:09 51.24614 -0.27452 1168 ft 125 kts 90°
2026-04-25 22:09 51.24678 -0.26048 1170 ft 130 kts 93°
2026-04-25 22:09 51.24217 -0.24856 1036 ft 138 kts 161°
2026-04-25 22:09 51.23320 -0.24715 1214 ft 126 kts 179°
2026-04-25 22:10 51.22494 -0.25127 1348 ft 125 kts 201°
2026-04-25 22:10 51.21646 -0.25378 1470 ft 123 kts 183°
2026-04-25 22:10 51.20786 -0.25324 1600 ft 122 kts 178°
2026-04-25 22:10 51.19942 -0.25198 1694 ft 124 kts 170°
2026-04-25 22:11 51.19102 -0.24886 1816 ft 122 kts 166°
2026-04-25 22:11 51.18387 -0.24183 1877 ft 125 kts 161°
2026-04-25 22:11 51.17812 -0.24973 1997 ft 131 kts 261°
2026-04-25 22:11 51.18229 -0.26071 2120 ft 119 kts 353°
2026-04-25 22:12 51.18760 -0.25411 2238 ft 115 kts 114°
2026-04-25 22:12 51.18600 -0.25914 2581 ft 86 kts 358°
2026-04-25 22:12 51.18609 -0.25312 2775 ft 94 kts 150°
2026-04-25 22:12 51.18122 -0.25174 2574 ft 131 kts 180°
2026-04-25 22:13 51.18454 -0.25908 2665 ft 111 kts 36°
2026-04-25 22:13 51.18830 -0.24804 2651 ft 121 kts 70°
2026-04-25 22:13 51.18879 -0.23263 2118 ft 153 kts 97°
2026-04-25 22:13 51.18522 -0.21712 1857 ft 154 kts 126°
2026-04-25 22:14 51.17577 -0.21307 1663 ft 158 kts 206°
2026-04-25 22:14 51.17218 -0.22810 1616 ft 152 kts 272°
2026-04-25 22:14 51.17059 -0.24473 1526 ft 151 kts 274°
2026-04-25 22:14 51.17664 -0.24977 1673 ft 123 kts 57°
2026-04-25 22:15 51.17374 -0.23831 1530 ft 143 kts 159°
2026-04-25 22:15 51.16593 -0.24584 1420 ft 148 kts 259°
2026-04-25 22:15 51.17224 -0.25458 1319 ft 138 kts 27°
2026-04-25 22:16 51.16663 -0.24798 1358 ft 139 kts 271°
2026-04-25 22:16 51.17274 -0.25119 1370 ft 125 kts 72°
2026-04-25 22:16 51.16719 -0.24566 1337 ft 137 kts 218°
2026-04-25 22:16 51.16503 -0.26011 1224 ft 142 kts 311°
2026-04-25 22:17 51.17196 -0.25667 1234 ft 133 kts 76°
2026-04-25 22:17 51.16515 -0.25016 1016 ft 147 kts 195°
2026-04-25 22:17 51.15796 -0.26058 1075 ft 140 kts 235°
2026-04-25 22:17 51.15177 -0.27199 1133 ft 135 kts 219°
2026-04-25 22:18 51.14315 -0.27644 1166 ft 134 kts 178°
2026-04-25 22:18 51.13625 -0.27161 955 ft 89 kts 114°
2026-04-25 22:18 51.13747 -0.26321 710 ft 81 kts 72°
2026-04-25 22:18 51.13909 -0.25541 648 ft 75 kts 69°
2026-04-25 22:19 51.14038 -0.24709 620 ft 79 kts 74°
2026-04-25 22:19 51.14147 -0.23843 599 ft 77 kts 61°
2026-04-25 22:19 51.14278 -0.23011 539 ft 79 kts 73°
2026-04-25 22:19 51.14398 -0.22145 481 ft 80 kts 78°
2026-04-25 22:20 51.14511 -0.21249 365 ft 84 kts 76°
2026-04-25 22:20 51.14631 -0.20356 268 ft 83 kts 76°
2026-04-25 22:20 51.14757 -0.19487 214 ft 76 kts 76°
2026-04-25 22:20 51.14854 -0.18770 195 ft 57 kts 73°
2026-04-25 22:21 51.14925 -0.18241 190 ft 44 kts 79°
2026-04-25 22:21 51.14984 -0.17813 190 ft 28 kts 79°
2026-04-25 22:21 51.14874 -0.17680 190 ft 18 kts 168°
2026-04-25 22:21 51.14803 -0.17582 191 ft 12 kts 102°
2026-04-25 22:22 51.14783 -0.17439 192 ft 14 kts 158°
2026-04-25 22:22 51.14714 -0.17434 194 ft 8 kts 68°
2026-04-25 22:22 51.14722 -0.17419 194 ft 1 kts 49°
2026-04-25 22:22 51.14724 -0.17414 194 ft 0 kts 51°